Weather History for KEQY - July, 2013

Change the Weather History Date:

Sunday, July 7, 2013

  Actual Average (KCLT) Record (KCLT)
Temperature  
Mean Temperature 78 °F 78 °F  
Max Temperature 87 °F 89 °F 100 °F (1954)
Min Temperature 71 °F 68 °F 55 °F (1972)
Degree Days  
Heating Degree Days 0 0  
Month to date heating degree days 0  
Since 1 June heating degree days 3  
Since 1 July heating degree days 0  
Cooling Degree Days 14 13  
Month to date cooling degree days 91  
Year to date cooling degree days 565  
Since 1 June cooling degree days 402  
Growing Degree Days 28 (Base 50)    
Moisture  
Dew Point 72 °F    
Average Humidity 89    
Maximum Humidity 100    
Minimum Humidity 65    
Precipitation  
Precipitation 0.83 in 0.11 in 2.37 in (1967)
Month to date precipitation 0.72  
Year to date precipitation 21.42  
Snow  
Snow 0.00 in 0.00 in 0.00 in ()
Month to date snowfall 0.0  
Since 1 June snowfall 0.0  
Since 1 July snowfall 0.0  
Snow Depth -    
Sea Level Pressure  
Sea Level Pressure 30.16 in    
Wind  
Wind Speed 4 mph (SSW)    
Max Wind Speed 18 mph    
Max Gust Speed 26 mph    
Visibility 7 miles    
Events Fog , Rain , Thunderstorm    
T = Trace of Precipitation, MM = Missing Value Source: NWS Daily Summary

Daily Weather History Graph

Daily Weather History Graph

Search for Another Location

Airport or City:

Trip Planner

Search our weather history database for the weather conditions in past years. The results will help you decide how hot, cold, wet, or windy it might be!

Date:

Astronomy

Jul. 07, 2013 Rise Set
Actual Time 6:15 AM EDT 8:39 PM EDT
Civil Twilight 5:45 AM EDT 9:08 PM EDT
Nautical Twilight 5:09 AM EDT 9:44 PM EDT
Astronomical Twilight 4:29 AM EDT 10:24 PM EDT
Moon 5:47 AM EDT (7/7) 8:05 PM EDT (7/7)
Length of Visible Light 15h 23m
Length of Day
14h 24m
Waning Crescent, 0% of the Moon is Illuminated
Jul 7
Waning Crescent
Jul 8
New
Jul 15
First Quarter
Jul 22
Full
Jul 29
Last Quarter

Hourly Weather History & Observations

Time (EDT) Temp. Heat Index Dew Point Humidity Pressure Visibility Wind Dir Wind Speed Gust Speed Precip Events Conditions
12:53 AM 73.9 °F - 71.1 °F 91% 30.19 in 10.0 mi South 4.6 mph - N/A   Mostly Cloudy
1:53 AM 73.9 °F - 72.0 °F 93% 30.18 in 10.0 mi Calm Calm - N/A   Clear
2:53 AM 72.0 °F - 71.1 °F 97% 30.17 in 4.0 mi Calm Calm - N/A   Clear
3:04 AM 71.6 °F - 69.8 °F 94% 30.17 in 1.8 mi Calm Calm - N/A   Partly Cloudy
3:14 AM 71.6 °F - 71.6 °F 100% 30.17 in 3.0 mi Calm Calm - N/A   Clear
3:25 AM 71.6 °F - 69.8 °F 94% 30.17 in 1.8 mi Calm Calm - N/A   Partly Cloudy
3:43 AM 71.6 °F - 71.6 °F 100% 30.17 in 2.0 mi Calm Calm - N/A   Mostly Cloudy
3:47 AM 71.6 °F - 71.6 °F 100% 30.17 in 5.0 mi Calm Calm - N/A   Scattered Clouds
3:53 AM 72.0 °F - 71.1 °F 97% 30.17 in 6.0 mi Calm Calm - N/A   Scattered Clouds
4:41 AM 71.6 °F - 71.6 °F 100% 30.17 in 8.0 mi SSW 3.5 mph - N/A   Partly Cloudy
4:53 AM 73.0 °F - 71.1 °F 93% 30.17 in 9.0 mi SSW 3.5 mph - N/A   Scattered Clouds
4:59 AM 71.6 °F - 71.6 °F 100% 30.17 in 9.0 mi SSW 3.5 mph - N/A   Mostly Cloudy
5:53 AM 73.0 °F - 72.0 °F 96% 30.18 in 10.0 mi SSW 4.6 mph - N/A   Overcast
6:02 AM 73.4 °F - 71.6 °F 94% 30.18 in 10.0 mi SW 4.6 mph - N/A   Overcast
6:20 AM 73.4 °F - 71.6 °F 94% 30.18 in 8.0 mi Calm Calm - N/A   Overcast
6:53 AM 73.0 °F - 72.0 °F 96% 30.17 in 8.0 mi Calm Calm - N/A   Overcast
7:53 AM 73.9 °F - 72.0 °F 93% 30.19 in 10.0 mi SSW 5.8 mph - N/A   Overcast
8:53 AM 75.9 °F - 73.0 °F 91% 30.20 in 10.0 mi Variable 5.8 mph - N/A   Overcast
9:01 AM 75.2 °F - 71.6 °F 89% 30.20 in 10.0 mi Variable 6.9 mph - N/A   Overcast
9:24 AM 77.0 °F - 73.4 °F 89% 30.20 in 10.0 mi Variable 3.5 mph - N/A   Overcast
9:53 AM 77.0 °F - 72.0 °F 84% 30.20 in 10.0 mi SSW 6.9 mph - N/A   Overcast
10:05 AM 78.8 °F - 71.6 °F 78% 30.20 in 10.0 mi SSW 8.1 mph - N/A   Overcast
10:15 AM 78.8 °F - 71.6 °F 78% 30.20 in 10.0 mi Variable 4.6 mph - N/A   Overcast
10:23 AM 78.8 °F - 73.4 °F 83% 30.20 in 10.0 mi SSW 6.9 mph - N/A   Overcast
10:53 AM 78.1 °F - 72.0 °F 81% 30.20 in 10.0 mi SSW 5.8 mph - N/A   Overcast
11:53 AM 80.1 °F 83.6 °F 71.1 °F 74% 30.19 in 10.0 mi SSW 8.1 mph - N/A   Overcast
12:53 PM 82.0 °F 86.3 °F 71.1 °F 69% 30.18 in 10.0 mi SSW 5.8 mph - N/A   Overcast
1:53 PM 84.9 °F 91.4 °F 73.0 °F 67% 30.16 in 10.0 mi SW 10.4 mph 17.3 mph N/A   Clear
2:53 PM 86.0 °F 93.0 °F 73.0 °F 65% 30.14 in 10.0 mi SW 9.2 mph - N/A   Scattered Clouds
3:53 PM 84.9 °F 90.7 °F 72.0 °F 65% 30.12 in 10.0 mi SSW 4.6 mph - N/A   Partly Cloudy
4:53 PM 84.0 °F 89.6 °F 72.0 °F 67% 30.10 in 10.0 mi SW 9.2 mph - N/A   Partly Cloudy
5:53 PM 82.0 °F 88.6 °F 75.0 °F 79% 30.10 in 10.0 mi WSW 4.6 mph - 0.05 in   Scattered Clouds
6:53 PM 82.0 °F 88.6 °F 75.0 °F 79% 30.09 in 10.0 mi South 3.5 mph - 0.00 in Rain , Thunderstorm Light Thunderstorms and Rain
6:59 PM 78.8 °F - 75.2 °F 89% 30.11 in 1.0 mi South 18.4 mph 26.5 mph 0.14 in Rain , Thunderstorm Light Thunderstorms and Rain
7:01 PM 75.2 °F - 73.4 °F 94% 30.12 in 0.5 mi South 11.5 mph 26.5 mph 0.28 in Fog , Rain , Thunderstorm Heavy Thunderstorms and Rain
7:15 PM 73.4 °F - 71.6 °F 94% 30.10 in 1.0 mi Variable 3.5 mph - 0.58 in Rain , Thunderstorm Light Thunderstorms and Rain
7:18 PM 73.4 °F - 71.6 °F 94% 30.11 in 3.0 mi Variable 5.8 mph - 0.61 in Rain , Thunderstorm Light Thunderstorms and Rain
7:20 PM 73.4 °F - 71.6 °F 94% 30.12 in 1.2 mi SE 8.1 mph - 0.71 in Rain , Thunderstorm Light Thunderstorms and Rain
7:31 PM 75.2 °F - 71.6 °F 89% 30.11 in 5.0 mi Variable 4.6 mph - 0.72 in Rain , Thunderstorm Light Thunderstorms and Rain
7:40 PM 75.2 °F - 71.6 °F 89% 30.11 in 3.0 mi SW 9.2 mph - 0.75 in Rain , Thunderstorm Rain
7:53 PM 75.9 °F - 73.0 °F 91% 30.12 in 7.0 mi West 6.9 mph - 0.78 in Rain , Thunderstorm Light Rain
8:28 PM 75.2 °F - 73.4 °F 94% 30.13 in 10.0 mi Calm Calm - 0.00 in   Mostly Cloudy
8:53 PM 75.9 °F - 73.9 °F 94% 30.13 in 10.0 mi Calm Calm - 0.00 in   Mostly Cloudy
9:16 PM 75.2 °F - 73.4 °F 94% 30.13 in 2.5 mi Calm Calm - N/A   Partly Cloudy
9:26 PM 73.4 °F - 73.4 °F 100% 30.14 in 1.5 mi Calm Calm - N/A   Clear
9:32 PM 73.4 °F - 73.4 °F 100% 30.14 in 3.0 mi Calm Calm - N/A   Clear
9:53 PM 75.0 °F - 73.9 °F 96% 30.16 in 5.0 mi Calm Calm - N/A   Mostly Cloudy
10:53 PM 75.0 °F - 73.0 °F 94% 30.16 in 8.0 mi South 4.6 mph - N/A   Scattered Clouds
11:53 PM 75.0 °F - 73.0 °F 94% 30.15 in 10.0 mi SSW 4.6 mph - N/A   Clear